Location: Camaret
(48.2753°N, 4.5961°W)
Time: 04:36:41
(UTC+00:00)

Cosmos 1758 Rocket - Pass Details

Date: 29 October 2020
Orbit: 601 x 637 km, 82.5° (Epoch: 01 December)

Event Time Altitude Azimuth Distance (km) Brightness Sun altitude
Rises 17:26:56 0° 349° (N) 2,911 7.0 -4.5°
Reaches altitude 10° 17:29:11 10° 348° (NNW) 1,994 6.1 -4.9°
Maximum altitude 17:33:36 80° 263° (W) 629 3.7 -5.6°
Drops below altitude 10° 17:37:56 10° 176° (S) 1,956 6.3 -6.3°
Sets 17:40:07 0° 175° (S) 2,851 7.1 -6.7°
